This is the latest recevied weather packets stored in our database for station/object WE8L. If no packets are shown the sender has not sent any weather packets the latest 10 day(s).
| Time | Temp. | Humidity | Pressure | Rain* | Wind** | Luminosity | Snow |
|---|---|---|---|---|---|---|---|
| 1777834784 | 15.56° C | 36% | 1018.9 hPa | 0 mm | - | 173 W/m² | - |
| 1777834480 | 16.11° C | 35% | 1018.9 hPa | 0 mm | - | 269 W/m² | - |
| 1777834180 | 15.56° C | 37% | 1019 hPa | 0 mm | - | 343 W/m² | - |
| 1777833877 | 15.56° C | 37% | 1019.1 hPa | 0 mm | - | 196 W/m² | - |
| 1777833573 | 15.56° C | 37% | 1019.4 hPa | 0 mm | - | 186 W/m² | - |
| 1777833270 | 15.56° C | 37% | 1019.4 hPa | 0 mm | - | 147 W/m² | - |
| 1777832967 | 15.56° C | 38% | 1019.5 hPa | 0 mm | - | 122 W/m² | - |
| 1777832666 | 15.56° C | 37% | 1019.5 hPa | 0 mm | - | 138 W/m² | - |
| 1777832363 | 15.56° C | 38% | 1019.5 hPa | 0 mm | - | 130 W/m² | - |
| 1777832060 | 15.56° C | 35% | 1019.6 hPa | 0 mm | - | 143 W/m² | - |
| 1777831756 | 15.56° C | 37% | 1019.5 hPa | 0 mm | - | 220 W/m² | - |
| 1777831454 | 16.11° C | 37% | 1019.7 hPa | 0 mm | - | 308 W/m² | - |
| 1777831150 | 15.56° C | 41% | 1019.5 hPa | 0 mm | - | 567 W/m² | - |
| 1777830849 | 15.56° C | 35% | 1019.7 hPa | 0 mm | - | 199 W/m² | - |
| 1777830544 | 15.56° C | 35% | 1019.7 hPa | 0 mm | - | 103 W/m² | - |
| 1777830243 | 15.56° C | 36% | 1019.7 hPa | 0 mm | - | 314 W/m² | - |
| 1777829943 | 15.56° C | 35% | 1019.8 hPa | 0 mm | - | 522 W/m² | - |
| 1777829639 | 15.56° C | 39% | 1020.2 hPa | 0 mm | - | 304 W/m² | - |
| 1777829336 | 15.56° C | 36% | 1020.1 hPa | 0 mm | - | 244 W/m² | - |
| 1777829034 | 15.56° C | 38% | 1020 hPa | 0 mm | - | 403 W/m² | - |
| 1777828729 | 15.56° C | 35% | 1020.2 hPa | 0 mm | - | 277 W/m² | - |
| 1777828426 | 15.56° C | 37% | 1020.4 hPa | 0 mm | - | 260 W/m² | - |
| 1777828124 | 15.56° C | 36% | 1020.5 hPa | 0 mm | - | 374 W/m² | - |
| 1777827820 | 15° C | 36% | 1020.6 hPa | 0 mm | - | 233 W/m² | - |
| 1777827517 | 15° C | 38% | 1020.6 hPa | 0 mm | - | 75 W/m² | - |
* Rain latest hour (hover to see other rain measurements)
** Current wind speed in m/s (hover to see current wind gust speed)